Location: Arcones
(41.1182°N, 3.7238°W)
Time: 19:30:41
(UTC+00:00)

Cosmos 2058 Rocket - Pass Details

Date: 23 March 2026
Orbit: 604 x 632 km, 82.5° (Epoch: 21 April)

Event Time Altitude Azimuth Distance (km) Brightness Sun altitude
Rises 04:19:18 0° 142° (SE) 2,901 6.7 -21.8°
Reaches altitude 10° 04:22:23 10° 119° (ESE) 2,004 6.2 -21.3°
Maximum altitude 04:24:52 15° 85° (E) 1,708 6.3 -20.8°
Drops below altitude 10° 04:27:22 10° 51° (NE) 2,018 6.7 -20.4°
Sets 04:30:28 0° 28° (NNE) 2,934 7.3 -19.8°
